TITAN 3C TRANSTAGE DEB, 1680

Orbit data source: Space-Track

TITAN 3C TRANSTAGE DEB, 1680 is space debris in LEO originally from a launch on Fri, 15 Oct 1965 UTC launched from the Air Force Eastern Test Range (AFETR). Debris objects in space refer to the collection of defunct objects orbiting the Earth. Examples of debris include non-operational satellites, rocket bodies, and fragments generated from explosions, collisions, or faulty payload assembly.

Loading next visibility...
TITAN 3C TRANSTAGE DEB details
Identifier
1680, 1965-082AT
Orbit
LEO
Last TLE update20 hours ago
Origin
Flag of USUSAF SSD (US)
ManufacturerUnknown
MissionSpacecraft
Bus & MotorUnknown
MassUnknown
Launch date (UTC)
1965-10-15 (59 years ago)
Launch vehicleUnknown
Launch site
Air Force Eastern Test Range (AFETR)
Object type
Payload
Rocket body
Debris
Shape & HBRUnknown
Radar Cross Section2.100 m², Large (>1 m²)

Expand to show TLE details & history

TLE from 20 hours ago
0 TITAN 3C TRANSTAGE DEB
1 01680U 65082AT  24355.82101003  .00000800  00000-0  13978-3 0  9999
2 01680  32.2538 150.4595 0020915   3.1772 356.9006 14.65039731133898
Epoch: 2024-12-20T19:42Z
Definitive object data (Epoch: 2024-12-20T19:42:15.266Z)
Latitude-0.00003°
Longitude125.01482°
Altitude660.878 km
Speed7.537 km/s
True Right ascension10h 01m 50s
True Declination0° 00' 00"
Sunlit
Object was in full shadow at TLE epoch
Visualization TLE readout
Latitude-6.05624°
Longitude-50.42323°
Altitude691.341 km
Speed7.505 km/s
Apparent Right ascension00h 16m 44s
Apparent Declination-26° 31' 39"
Sunlit
Object is in daylight
Visualization observer readout
Local Sidereal Time15:14:15
Azimuth83.818° E
Elevation-50.993°
Doppler factor1
Orbital elements
Apogee altitude695.292 km
Perigee altitude665.766 km
Semi-major axis7,058.666 km
Eccentricity0.0020915
Inclination32.2538°
RAAN150.4595°
Arg. of periapsis3.1772°
True anomaly356.88761°
Mean anomaly356.9006°
Eccentric anomaly356.89411°
Mean motion3.65982 °/min
BSTAR0.00013978
Orbital period98.37 mins
Loading maneuver chart data...

TITAN 3C TRANSTAGE DEB Visibility forecast

Observer location: undefined°, undefined

Span
Click to sort rows by Start time (UTC) header in descending order
Start Az.
Max El. time (UTC)
Max El. Az.
Max El.
End time (UTC)
End Az.
8 mins2024-12-21 17:20:50.505Z245.962° WSW2024-12-21 17:24:50.505Z184.541° SSW27.438°2024-12-21 17:28:50.505Z126.288° SE
4 mins2024-12-21 19:06:50.505Z222.293° SW2024-12-21 19:07:50.505Z207.563° SW17.073°2024-12-21 19:10:50.505Z165.522° S
6 mins2024-12-22 14:29:50.505Z211.005° SW2024-12-22 14:32:50.505Z162.362° S22.841°2024-12-22 14:35:50.505Z117.494° SE
|